Location: Unspecified
(35.6961°N, 0.0000°E)
Time: 04:47:49
(UTC+00:00)

A-11 Canister half - All Passes

Search period start: 21 May 2019 00:00
Search period end: 31 May 2019 00:00
Orbit: 1517 x 1683 km, 47.2° (Epoch: 19 May)

Date Brightness Start Highest point End Pass type
(mag) Time Alt. Az. Time Alt. Az. Time Alt. Az.
21 May - 00:08:01 10° NW 00:17:06 55° NNE 00:26:21 10° E visible
21 May - 02:13:03 10° WNW 02:22:15 64° SW 02:31:44 10° SE visible
21 May - 04:20:54 10° W 04:25:55 16° SW 04:31:02 10° SSW visible
21 May - 17:27:59 10° SSW 17:36:42 44° SE 17:45:17 10° ENE daylight
21 May - 19:32:01 10° WSW 19:41:19 68° NNW 19:50:33 10° NE visible
21 May - 21:38:54 10° WNW 21:47:32 41° N 21:56:13 10° ENE visible
21 May - 23:45:06 10° NW 23:54:08 53° NNE 00:03:19 10° E visible
22 May - 01:50:08 10° WNW 01:59:22 68° SW 02:08:52 10° SE visible
22 May - 03:57:32 10° W 04:03:06 17° SW 04:08:46 10° SSW visible
22 May - 17:05:15 10° SSW 17:13:52 41° SE 17:22:19 10° ENE daylight
22 May - 19:09:02 10° WSW 19:18:23 71° NNW 19:27:38 10° NE daylight
22 May - 21:15:53 10° WNW 21:24:32 41° N 21:33:12 10° ENE visible
22 May - 23:22:10 10° NW 23:31:09 51° NNE 23:40:16 10° E visible
23 May - 01:27:13 10° WNW 01:36:28 72° SW 01:46:00 10° SE visible
23 May - 03:34:15 10° W 03:40:15 19° SW 03:46:24 10° SSW visible
23 May - 16:42:32 10° SSW 16:51:01 38° SE 16:59:19 10° ENE daylight
23 May - 18:46:04 10° WSW 18:55:27 74° NNW 19:04:43 10° NE daylight
23 May - 20:52:51 10° WNW 21:01:31 42° N 21:10:13 10° ENE visible
23 May - 22:59:14 10° NW 23:08:10 49° NNE 23:17:14 10° E visible
24 May - 01:04:18 10° WNW 01:13:35 76° SW 01:23:07 10° SE visible
24 May - 03:11:02 10° W 03:17:27 21° SW 03:23:58 10° S visible
24 May - 16:19:51 10° SSW 16:28:10 36° SE 16:36:19 10° ENE daylight
24 May - 18:23:06 10° WSW 18:32:31 77° NNW 18:41:49 10° NE daylight
24 May - 20:29:49 10° WNW 20:38:31 42° N 20:47:14 10° ENE visible
24 May - 22:36:18 10° WNW 22:45:11 48° NNE 22:54:11 10° E visible
25 May - 00:41:23 10° WNW 00:50:42 80° SW 01:00:13 10° SE visible
25 May - 02:47:52 10° W 02:54:37 23° SW 03:01:30 10° S visible
25 May - 15:57:10 10° S 16:05:20 33° SE 16:13:18 10° ENE daylight
25 May - 18:00:09 10° WSW 18:09:36 81° NW 18:18:54 10° NE daylight
25 May - 20:06:47 10° W 20:15:31 43° N 20:24:15 10° ENE visible
25 May - 22:13:21 10° WNW 22:22:12 47° NNE 22:31:08 10° E visible
26 May - 00:18:29 10° WNW 00:27:47 84° SW 00:37:18 10° SE visible
26 May - 02:24:44 10° WNW 02:31:46 25° SW 02:38:59 10° S visible
26 May - 15:34:32 10° S 15:42:29 31° SE 15:50:15 10° ENE daylight
26 May - 17:37:12 10° WSW 17:46:41 85° NW 17:56:01 10° NE daylight
26 May - 19:43:43 10° W 19:52:31 44° NNW 20:01:17 10° ENE visible
26 May - 21:50:24 10° WNW 21:59:13 46° NNE 22:08:05 10° E visible
26 May - 23:55:35 10° NW 00:04:53 88° SW 00:14:23 10° SE visible
27 May - 02:01:37 10° WNW 02:08:56 27° SW 02:16:25 10° S visible
27 May - 15:11:54 10° S 15:19:39 29° SE 15:27:12 10° ENE daylight
27 May - 17:14:15 10° SW 17:23:47 89° NW 17:33:06 10° NE daylight
27 May - 19:20:41 10° W 19:29:32 45° NNW 19:38:18 10° ENE visible
27 May - 21:27:26 10° WNW 21:36:13 45° NNE 21:45:03 10° E visible
27 May - 23:32:40 10° NW 23:41:59 88° NE 23:51:27 10° SE visible
28 May - 01:38:33 10° WNW 01:46:06 29° SW 01:53:50 10° S visible
28 May - 14:49:19 10° S 14:56:49 26° SE 15:04:07 10° ENE daylight
28 May - 16:51:19 10° SW 17:00:52 87° SSE 17:10:12 10° ENE daylight
28 May - 18:57:38 10° W 19:06:32 46° NNW 19:15:21 10° ENE daylight
28 May - 21:04:28 10° WNW 21:13:13 44° N 21:22:00 10° E visible
28 May - 23:09:46 10° NW 23:19:04 84° NE 23:28:32 10° ESE visible
29 May - 01:15:29 10° WNW 01:23:16 31° SW 01:31:13 10° S visible
29 May - 14:26:46 10° S 14:33:59 24° SE 14:41:01 10° ENE daylight
29 May - 16:28:24 10° SW 16:37:58 83° SE 16:47:17 10° ENE daylight
29 May - 18:34:35 10° W 18:43:33 47° NNW 18:52:24 10° ENE daylight
29 May - 20:41:30 10° WNW 20:50:14 43° N 20:58:57 10° E visible
29 May - 22:46:51 10° NW 22:56:09 80° NNE 23:05:35 10° ESE visible
30 May - 00:52:27 10° WNW 01:00:26 33° SW 01:08:34 10° S visible
30 May - 14:04:15 10° S 14:11:08 22° SE 14:17:53 10° E daylight
30 May - 16:05:30 10° SW 16:15:04 79° SE 16:24:22 10° ENE daylight
30 May - 18:11:32 10° W 18:20:34 48° NNW 18:29:27 10° ENE daylight
30 May - 20:18:30 10° WNW 20:27:14 42° N 20:35:55 10° ENE visible
30 May - 22:23:56 10° NW 22:33:14 77° NNE 22:42:37 10° ESE visible
